Location: Beaurecueil
(43.5122°N, 5.5450°E)
Time: 13:36:46
(UTC+00:00)

Cosmos 1626 - Pass Details

Date: 18 September 2020
Orbit: 490 x 495 km, 82.5° (Epoch: 31 October)

Event Time Altitude Azimuth Distance (km) Brightness Sun altitude
Rises 20:14:15 0° 353° (N) 2,587 6.3 -27.1°
Reaches altitude 10° 20:16:23 10° 355° (N) 1,699 5.2 -27.4°
Enters shadow 20:17:29 19° 358° (N) 1,249 4.4 -27.6°
